Location: Bonn
(50.7330°N, 7.1000°E)
Time: 12:15:11
(UTC+02:00)

Iridium 67 - Visible Passes

Search period start: 28 September 2016 00:00
Search period end: 08 October 2016 00:00
Orbit: 776 x 779 km, 86.4° (Epoch: 26 September)

Date Brightness Start Highest point End Pass type
(mag) Time Alt. Az. Time Alt. Az. Time Alt. Az.
28 Sep 7.8 00:16:13 21° NNW 00:16:13 21° NNW 00:18:05 10° N visible
28 Sep 7.8 22:02:18 11° NE 22:02:18 11° NE 22:02:42 10° NE visible
28 Sep 7.6 23:42:46 23° N 23:42:46 23° N 23:44:39 10° N visible
29 Sep 8.4 01:23:14 10° NW 01:23:14 10° NW 01:23:27 10° NW visible
29 Sep 7.5 23:09:20 21° NNE 23:09:20 21° NNE 23:11:04 10° N visible
30 Sep 8.2 00:49:48 15° NNW 00:49:48 15° NNW 00:51:02 10° NNW visible
30 Sep 7.6 22:35:53 18° NNE 22:35:53 18° NNE 22:37:18 10° NNE visible
01 Oct 7.9 00:16:21 19° NNW 00:16:21 19° NNW 00:18:00 10° NNW visible
01 Oct 7.7 22:02:25 14° NE 22:02:25 14° NE 22:03:17 10° NNE visible
01 Oct 7.7 23:42:54 21° N 23:42:54 21° N 23:44:42 10° N visible
02 Oct 7.5 23:09:26 22° N 23:09:26 22° N 23:11:13 10° N visible
03 Oct 8.4 00:49:54 12° NW 00:49:54 12° NW 00:50:34 10° NNW visible
03 Oct 7.5 22:35:58 20° NNE 22:35:58 20° NNE 22:37:32 10° NNE visible
04 Oct 8.1 00:16:26 16° NNW 00:16:26 16° NNW 00:17:49 10° NNW visible
04 Oct 7.6 22:02:29 16° NNE 22:02:29 16° NNE 22:03:41 10° NNE visible
04 Oct 7.9 23:42:58 20° NNW 23:42:58 20° NNW 23:44:40 10° N visible
05 Oct 7.7 21:29:01 12° NE 21:29:01 12° NE 21:29:32 10° NNE visible
05 Oct 7.6 23:09:29 22° N 23:09:29 22° N 23:11:17 10° N visible
06 Oct 7.5 22:36:00 21° N 22:36:00 21° N 22:37:43 10° N visible
07 Oct 8.3 00:16:28 14° NNW 00:16:28 14° NNW 00:17:30 10° NNW visible
07 Oct 7.5 22:02:31 19° NNE 22:02:31 19° NNE 22:04:00 10° NNE visible
07 Oct 8.0 23:42:59 18° NNW 23:42:59 18° NNW 23:44:33 10° NNW visible
